Погода в Гати

Украина / Закарпатская область     48°19′13″N   22°38′22″E
темп.,
°C
ветер,
м/с
пор.,
м/с
влажн.,
%
обл.,
%
осадки,
мм/ч
давл.,
гПа
погр.,
м
10 апреля, сб
сб1000:00+2юв337034 0.0 102649
03:00+1вюв2272100 0.0 102622
06:00+3вюв2265100 0.0 102545
09:00+5юв246185 0.0 1025224
12:00+11ююв46475 0.0 1024922
15:00+14ю46445 0.0 10231757
18:00+14ююз355119 0.0 10211871
21:00+8юв22682 0.0 102211
11 апреля, вс
вс1100:00+7вюв227720 0.0 102325
03:00+5вюв22777 0.0 102414
06:00+4в2280100 0.0 102314
09:00+8вюв236913 0.0 1024153
12:00+14юв35535 0.0 1024790
15:00+17ююв5644100 0.0 10221630
18:00+16ююв4652100 0.0 10211430
21:00+11юв2265100 0.0 102121
12 апреля, пн
пн1200:00+10ююв1269100 0.0 102213
03:00+10вюв346697 0.0 102182
06:00+10юв2365100 0.0 102155
09:00+10юв3668100 0.0 1021177
12:00+15ююв565384 0.0 1020795
15:00+17ю355363 0.0 10191007
18:00+16вюв0163100 0.0 101718
21:00+13вюв1172100 0.0 101711
13 апреля, вт
вт1300:00+13св337491 0.1 101756
03:00+11в2278100 0.1 101616
06:00+11з2275100 0.0 101643
09:00+11ююв2478100 0.1 1016131
12:00+11юв1289100 1.0 1016131
15:00+11всв3694100 4.6 1015188
18:00+10зсз2395100 0.3 1014141
21:00+8з1198100 3.1 101466
14 апреля, ср
ср1400:00+6зсз4797100 4.0 1014217
03:00+5зсз3595100 7.0 1013193
06:00+5сз4791100 0.0 1012267
09:00+4ссз6990100 1.3 1012484
12:00+2ссз6996100 3.4 1013561
15:00+3сз7993100 7.4 1014686
18:00+3сз7994100 1.4 1014647
21:00+2сз61097100 2.1 1015506